Chehalis, WA
on Wednesday, February 6, 2013

Wednesday
Previous Day Next Day
Daily Summary
 ActualAverage (KOLM)Record (KOLM)
Temperature
Mean Temperature °F 41°F  
Max Temperature 48°F 48°F 64°F (1963)
Min Temperature 41°F 33°F 5°F (1989)
Degree Days
Heating Degree Days 20 24  
Month to date heating degree days 145  
Since 1 July heating degree days 3196  
Cooling Degree Days 0 0  
Month to date cooling degree days 0  
Year to date cooling degree days 0  
Moisture
Dew Point 41°F   
Average Humidity 86    
Maximum Humidity 100    
Minimum Humidity 76    
Precipitation
Precipitation 0.21 in 0.21 in 2.41 in (1979)
Month to date precipitation 1.22  
Year to date precipitation 9.06  
Wind
Wind Speed 9 mph   
Max Wind Speed 14 mph   
Max Gust Speed 23 mph   
Visibility 7 miles   
Events Rain   

Key: T is trace of precipitation, MM is missing value
Source: NWS Daily Summary
Time(PST)TemperatureDew PointHumidity Pressure Visibility Wind DirectionWind SpeedGust SpeedPrecipitationEvents Conditions
12:15 AM 44.6°F 41.0°F 87% 30.00 in 9.0 miles South 9.2 mph - 0.01 in   Overcast
12:35 AM 42.8°F 41.0°F 93% 30.01 in 8.0 miles South 8.1 mph - 0.03 in   Overcast
12:55 AM 42.8°F 41.0°F 93% 30.02 in 6.0 miles South 10.4 mph - 0.03 in   Overcast
1:15 AM 42.8°F 41.0°F 93% 30.02 in 7.0 miles South 8.1 mph - 0.02 in Rain Light Rain
1:35 AM 42.8°F 41.0°F 93% 30.03 in 8.0 miles SSE 9.2 mph - 0.03 in   Overcast
1:55 AM 42.8°F 41.0°F 93% 30.03 in 9.0 miles South 6.9 mph - 0.04 in Rain Light Rain
2:15 AM 42.8°F 41.0°F 93% 30.03 in 10.0 miles South 9.2 mph - N/A   Overcast
2:35 AM 42.8°F 41.0°F 93% 30.03 in 10.0 miles South 8.1 mph - 0.01 in Rain Light Rain
2:55 AM 42.8°F 41.0°F 93% 30.04 in 7.0 miles SSW 4.6 mph - 0.01 in Rain Light Rain
3:15 AM 42.8°F 41.0°F 93% 30.04 in 5.0 miles South 8.1 mph - 0.04 in Rain Rain
3:35 AM 42.8°F 41.0°F 93% 30.04 in 9.0 miles SW 3.5 mph - 0.04 in Rain Light Rain
3:55 AM 42.8°F 41.0°F 93% 30.04 in 5.0 miles South 5.8 mph - 0.04 in Rain Light Rain
4:15 AM 42.8°F 41.0°F 93% 30.04 in 10.0 miles South 8.1 mph - N/A   Overcast
4:35 AM 42.8°F 41.0°F 93% 30.05 in 6.0 miles SW 3.5 mph - 0.01 in   Overcast
4:55 AM 42.8°F 41.0°F 93% 30.05 in 10.0 miles South 5.8 mph - 0.01 in   Overcast
5:15 AM 42.8°F 41.0°F 93% 30.05 in 10.0 miles South 8.1 mph - N/A   Overcast
5:35 AM 42.8°F 41.0°F 93% 30.06 in 10.0 miles South 6.9 mph - N/A   Overcast
5:55 AM 42.8°F 41.0°F 93% 30.06 in 8.0 miles SSW 5.8 mph - N/A Rain Light Rain
6:15 AM 42.8°F 41.0°F 93% 30.06 in 7.0 miles South 5.8 mph - N/A Rain Light Rain
6:35 AM 42.8°F 41.0°F 93% 30.06 in 10.0 miles South 5.8 mph - N/A   Overcast
6:55 AM 42.8°F 41.0°F 93% 30.07 in 10.0 miles South 5.8 mph - N/A   Overcast
7:15 AM 42.8°F 41.0°F 93% 30.07 in 8.0 miles South 5.8 mph - N/A Rain Light Rain
7:35 AM 42.8°F 41.0°F 93% 30.07 in 7.0 miles SSE 4.6 mph - N/A   Overcast
7:55 AM 41.0°F 41.0°F 100% 30.07 in 7.0 miles South 8.1 mph - N/A   Overcast
8:15 AM 42.8°F 41.0°F 93% 30.07 in 5.0 miles South 8.1 mph - N/A   Mostly Cloudy
8:35 AM 42.8°F 41.0°F 93% 30.07 in 5.0 miles SSE 8.1 mph - N/A   Overcast
8:55 AM 42.8°F 41.0°F 93% 30.07 in 5.0 miles SSE 6.9 mph - N/A   Overcast
9:15 AM 44.6°F 41.0°F 87% 30.07 in 5.0 miles South 10.4 mph - N/A   Overcast
9:35 AM 44.6°F 41.0°F 87% 30.07 in 5.0 miles South 8.1 mph - N/A   Overcast
9:55 AM 44.6°F 41.0°F 87% 30.07 in 9.0 miles South 9.2 mph - N/A   Overcast
10:15 AM 44.6°F 41.0°F 87% 30.06 in 10.0 miles South 8.1 mph - N/A   Overcast
10:35 AM 44.6°F 41.0°F 87% 30.06 in 5.0 miles South 11.5 mph 17.3 mph N/A   Overcast
10:55 AM 46.4°F 41.0°F 81% 30.05 in 5.0 miles South 11.5 mph 17.3 mph N/A   Overcast
11:15 AM 46.4°F 41.0°F 81% 30.05 in 5.0 miles South 12.7 mph 16.1 mph N/A   Haze
11:35 AM 46.4°F 41.0°F 81% 30.04 in 5.0 miles South 13.8 mph 23.0 mph N/A   Haze
11:55 AM 48.2°F 41.0°F 76% 30.03 in 9.0 miles South 13.8 mph 21.9 mph N/A   Overcast
12:15 PM 46.4°F 41.0°F 81% 30.03 in 5.0 miles South 13.8 mph 21.9 mph N/A   Haze
12:35 PM 48.2°F 41.0°F 76% 30.02 in 5.0 miles South 12.7 mph 18.4 mph N/A   Haze
12:55 PM 48.2°F 41.0°F 76% 30.01 in 9.0 miles South 8.1 mph 20.7 mph N/A   Mostly Cloudy
1:15 PM 48.2°F 41.0°F 76% 30.00 in 9.0 miles South 11.5 mph 18.4 mph N/A   Overcast
1:35 PM 46.4°F 41.0°F 81% 30.00 in 5.0 miles South 12.7 mph 18.4 mph N/A Rain Light Rain
1:55 PM 46.4°F 41.0°F 81% 29.99 in 5.0 miles South 11.5 mph 19.6 mph N/A Rain Light Rain
2:15 PM 46.4°F 41.0°F 81% 29.98 in 5.0 miles South 10.4 mph - N/A   Haze
2:35 PM 48.2°F 41.0°F 76% 29.97 in 5.0 miles South 10.4 mph - N/A   Haze
2:55 PM 48.2°F 41.0°F 76% 29.96 in 7.0 miles South 10.4 mph - N/A   Mostly Cloudy
3:15 PM 46.4°F 41.0°F 81% 29.96 in 6.0 miles South 9.2 mph - 0.01 in Rain Light Rain
3:35 PM 46.4°F 41.0°F 81% 29.96 in 5.0 miles South 10.4 mph 16.1 mph 0.01 in Rain Light Rain
3:55 PM 46.4°F 41.0°F 81% 29.96 in 7.0 miles South 10.4 mph 20.7 mph 0.02 in   Scattered Clouds
4:15 PM 46.4°F 41.0°F 81% 29.95 in 5.0 miles South 9.2 mph - N/A   Haze
4:35 PM 46.4°F 41.0°F 81% 29.94 in 9.0 miles South 8.1 mph - N/A   Overcast
4:55 PM 46.4°F 42.8°F 87% 29.93 in 5.0 miles South 8.1 mph - N/A Rain Light Rain
5:15 PM 46.4°F 41.0°F 81% 29.93 in 5.0 miles SSE 8.1 mph - N/A   Mostly Cloudy
5:35 PM 46.4°F 41.0°F 81% 29.92 in 10.0 miles South 6.9 mph - N/A   Overcast
5:55 PM 46.4°F 41.0°F 81% 29.91 in 10.0 miles SSE 9.2 mph - N/A   Overcast
6:15 PM 46.4°F 41.0°F 81% 29.89 in 10.0 miles South 9.2 mph - N/A   Overcast
6:35 PM 46.4°F 41.0°F 81% 29.89 in 7.0 miles South 8.1 mph - N/A   Overcast
6:55 PM 46.4°F 41.0°F 81% 29.87 in 7.0 miles South 10.4 mph - N/A   Overcast
7:15 PM 46.4°F 41.0°F 81% 29.86 in 7.0 miles SSE 10.4 mph - N/A   Overcast
7:35 PM 46.4°F 39.2°F 76% 29.86 in 7.0 miles South 8.1 mph - N/A   Mostly Cloudy
7:55 PM 46.4°F 39.2°F 76% 29.85 in 7.0 miles South 10.4 mph - N/A   Overcast
8:15 PM 46.4°F 39.2°F 76% 29.84 in 7.0 miles South 8.1 mph - N/A   Overcast
8:35 PM 46.4°F 39.2°F 76% 29.83 in 7.0 miles South 11.5 mph 17.3 mph N/A   Overcast
9:15 PM 46.4°F 39.2°F 76% 29.83 in 7.0 miles South 12.7 mph 19.6 mph N/A   Overcast
9:35 PM 46.4°F 39.2°F 76% 29.82 in 6.0 miles South 11.5 mph 17.3 mph N/A   Haze
10:15 PM 44.6°F 41.0°F 87% 29.81 in 9.0 miles South 11.5 mph 17.3 mph 0.01 in Rain Light Rain
10:35 PM 44.6°F 41.0°F 87% 29.80 in 7.0 miles South 10.4 mph 16.1 mph 0.02 in Rain Light Rain
10:55 PM 44.6°F 41.0°F 87% 29.81 in 10.0 miles SSW 8.1 mph - 0.02 in   Overcast
11:15 PM 44.6°F 41.0°F 87% 29.83 in 5.0 miles SSW 12.7 mph - N/A Rain Light Rain
11:35 PM 44.6°F 41.0°F 87% 29.84 in 5.0 miles SSW 11.5 mph - 0.03 in   Overcast
11:55 PM 44.6°F 39.2°F 81% 29.85 in 10.0 miles SSW 9.2 mph - 0.04 in Rain Light Rain
Moon Phase
Feb. 06 Feb. 10 Feb. 17 Feb. 25 Mar. 04
Sunrise:07:28 AM (PST) Moon Rise:04:25 AM (PST)2/6
Sunset:05:23 PM (PST) Moon Set:01:41 PM (PST)2/6

Copyright © 2014 The Weather Underground, Inc.